[[{"header":{"parameterUnit":"m.s-1","parameterCategory":1,"la1":30.2991,"la2":30.254,"lo1":-89.0895,"lo2":-89.0444,"dy":0.0017,"dx":0.0017,"nx":28,"ny":28,"refTime":"2025-09-06T21:00:00:Z","depth":0,"parameterNumber":2,"parameterNumberName":"U-component_of_WINDS"},"data":[0,0,0,0,0,0,0,0,0,0,0,0,0,0,0,0,0,0,0,0,0,0,0,0,0,0,0,0,0,0,0,0,0,0,0,0,0,0,0,0,0,0,0,0,0,0,0,0,0,0,0,0,0,0,0,0,0,0,0.4433,0.4434,0,0.4488,0.4489,0.449,0.4511,0.4511,0.4511,0.451,0.4569,0.4571,0.4573,0,0,0,0,0,0,0,0,0,0,0,0,0,0.435,0.4352,0.4433,0.4434,0.4435,0.4488,0.4489,0.449,0.4511,0.4511,0.4511,0.451,0.4569,0.4571,0.4573,0,0,0,0,0,0,0,0,0,0,0,0,0,0.4394,0.4352,0.4433,0.4452,0.4454,0.4488,0.4489,0.449,0.4511,0.4511,0.451,0.451,0.4568,0.457,0.4573,0.4594,0,0,0.4581,0.4582,0,0,0,0,0,0,0,0,0.4391,0.4397,0.4448,0.4451,0.4453,0.4492,0.4481,0.4525,0.4511,0.4489,0.451,0.451,0.4544,0.4549,0.4559,0.4596,0.4599,0.4581,0.4583,0.4584,0.4584,0,0,0,0,0,0,0,0.4388,0.4395,0.4455,0.4449,0.4452,0.4458,0.4464,0.449,0.4517,0.4491,0.4493,0.4499,0.4545,0.4557,0.4561,0.46,0.4581,0.4583,0.4585,0.4586,0.4657,0.4658,0,0,0,0,0,0,0.4382,0.4392,0.4453,0.4457,0.4421,0.446,0.4467,0.448,0.4517,0.4523,0.4499,0.45,0.4553,0.4558,0.4563,0.459,0.4584,0.4586,0.4588,0.4657,0.4658,0.4658,0,0,0,0,0,0,0.438,0.4387,0.4451,0.4425,0.4434,0.4462,0.4477,0.4481,0.4493,0.4523,0.4529,0.4506,0.4553,0.456,0.4586,0.4592,0.4587,0.459,0.4657,0.4657,0.4658,0.4644,0,0,0,0,0,0,0.4377,0.4386,0.4394,0.4425,0.4435,0.4472,0.4477,0.4483,0.4497,0.4498,0.4531,0.4536,0.4553,0.4582,0.4588,0.4596,0.4592,0.4656,0.4657,0.4658,0.4644,0.4644,0.4644,0,0,0,0,0,0.4374,0.4388,0.4394,0.4401,0.4444,0.4472,0.4478,0.4497,0.4497,0.4506,0.4525,0.4535,0.4591,0.4584,0.4592,0.46,0.4656,0.4657,0.4657,0.4644,0.4644,0.4644,0,0,0,0,0,0,0.4357,0.4392,0.4399,0.4423,0.4444,0.4476,0.4487,0.4496,0.4519,0.4519,0.4542,0.4549,0.4574,0.459,0.4582,0.4623,0.4624,0.4626,0.4611,0.4611,0.4611,0.4607,0.4594,0,0,0,0,0,0.4356,0.4375,0.4405,0.4423,0.4434,0.4458,0.4471,0.4484,0.4507,0.4517,0.4538,0.4561,0.4584,0.4599,0.4622,0.4646,0.4654,0.4656,0.4656,0.4656,0.4658,0.4673,0.4674,0.4661,0.4661,0.4661,0,0,0.4354,0.4376,0.4386,0.442,0.4438,0.4458,0.4466,0.4486,0.4502,0.452,0.4546,0.4563,0.459,0.4616,0.4629,0.463,0.4663,0.4657,0.4657,0.4658,0.4674,0.4675,0.4676,0.4661,0.4661,0.4661,0,0,0.4361,0.4379,0.4396,0.4414,0.4441,0.4458,0.4462,0.4492,0.4503,0.453,0.4544,0.4563,0.4602,0.4621,0.4636,0.4651,0.4661,0.4658,0.4658,0.4672,0.4673,0.4674,0.468,0.4682,0.466,0.466,0.466,0,0.4355,0.4385,0.4404,0.4424,0.4439,0.4456,0.4474,0.4491,0.4525,0.4535,0.4536,0.4585,0.4605,0.4636,0.464,0.4651,0.4657,0.4654,0.4671,0.4673,0.4674,0.468,0.4682,0.4659,0.4659,0.4659,0.4659,0,0.4377,0.4398,0.4409,0.444,0.4456,0.4475,0.4498,0.4512,0.4524,0.454,0.4568,0.4592,0.462,0.4629,0.464,0.4661,0.4662,0.4667,0.4669,0.4674,0.468,0.4682,0.4658,0.4658,0.4659,0.4659,0,0,0.4374,0.4415,0.4419,0.4434,0.4465,0.4482,0.4503,0.4529,0.4542,0.4564,0.4583,0.4615,0.4621,0.4637,0.4652,0.4664,0.4675,0.4668,0.4669,0.4669,0.4701,0.4696,0.4698,0.4682,0.4682,0.4683,0.4698,0,0.4385,0.4421,0.4439,0.4468,0.4487,0.4504,0.4522,0.4544,0.456,0.458,0.4599,0.4622,0.4627,0.4637,0.465,0.4671,0.4682,0.467,0.47,0.4701,0.4692,0.4701,0.4697,0.471,0.4701,0.4701,0.4701,0,0.4402,0.4424,0.4454,0.4484,0.4493,0.4509,0.4535,0.4554,0.458,0.4591,0.461,0.4623,0.4647,0.4647,0.468,0.4672,0.4685,0.4697,0.4698,0.4702,0.4701,0.4705,0.4715,0.4717,0.4705,0.4705,0.4704,0,0.4397,0.4434,0.4457,0.4469,0.4505,0.4515,0.4531,0.4556,0.4571,0.4595,0.4605,0.4631,0.4646,0.4666,0.4687,0.4686,0.4718,0.472,0.4729,0.4728,0.4735,0.4734,0.4747,0.4744,0.4744,0.4744,0.4743,0,0.4407,0.4425,0.4456,0.447,0.4491,0.4512,0.4533,0.455,0.4572,0.4591,0.4608,0.4625,0.4652,0.4673,0.4689,0.4714,0.4721,0.4731,0.4735,0.4729,0.4728,0.4739,0.4738,0.4744,0.4744,0.4744,0.4744,0,0.4405,0.4426,0.4452,0.4483,0.4492,0.4506,0.4533,0.4548,0.4566,0.4589,0.4596,0.4624,0.4649,0.4672,0.4706,0.4718,0.4743,0.4749,0.4734,0.4737,0.4744,0.4743,0.4764,0.4768,0.4761,0.4761,0.4761,0,0.441,0.4424,0.4457,0.447,0.4485,0.4506,0.4522,0.4544,0.4559,0.459,0.4602,0.4628,0.4651,0.4691,0.4715,0.4741,0.4748,0.4753,0.4752,0.4746,0.4748,0.4747,0.4749,0.4753,0.4753,0.4753,0.4753,0,0.4417,0.4426,0.4448,0.4473,0.4491,0.4512,0.4533,0.4544,0.457,0.4587,0.4613,0.463,0.4665,0.4692,0.4721,0.4738,0.475,0.4753,0.4756,0.4751,0.4742,0.4747,0.4734,0.4752,0.4752,0.4752,0.4752,0.4752,0.4418,0.4432,0.4457,0.448,0.4499,0.4519,0.4535,0.4554,0.4576,0.4605,0.4618,0.4644,0.4671,0.4711,0.4728,0.475,0.4752,0.4757,0.4758,0.4759,0.4758,0.4738,0.4755,0.4755,0.4755,0.4755,0.4755,0,0.4426,0.4443,0.4465,0.4494,0.4513,0.4522,0.4547,0.4562,0.4585,0.4608,0.463,0.466,0.4686,0.4712,0.474,0.4752,0.4758,0.4759,0.4758,0.4762,0.4754,0.4749,0.4753,0.4753,0.4753,0.4753,0.4753,0.4753,0.4432,0.4456,0.4469,0.4502,0.452,0.4545,0.4559,0.4578,0.4596,0.4629,0.4651,0.4667,0.4692,0.4721,0.4746,0.4753,0.4763,0.4761,0.477,0.4762,0.4762,0.4762,0.4757,0.4763,0.4763,0.4776,0.4776,0.4776]},{"header":{"parameterUnit":"m.s-1","parameterCategory":1,"la1":30.2991,"la2":30.254,"lo1":-89.0895,"lo2":-89.0444,"dy":0.0017,"dx":0.0017,"nx":28,"ny":28,"refTime":"2025-09-06T21:00:00:Z","depth":0,"parameterNumber":3,"parameterNumberName":"V-component_of_WINDS"},"data":[0,0,0,0,0,0,0,0,0,0,0,0,0,0,0,0,0,0,0,0,0,0,0,0,0,0,0,0,0,0,0,0,0,0,0,0,0,0,0,0,0,0,0,0,0,0,0,0,0,0,0,0,0,0,0,0,0,0,-0.8393,-0.8392,0,-0.8353,-0.8352,-0.8352,-0.8342,-0.8343,-0.8343,-0.8343,-0.8301,-0.83,-0.8299,0,0,0,0,0,0,0,0,0,0,0,0,0,-0.8464,-0.8463,-0.8393,-0.8392,-0.8392,-0.8353,-0.8352,-0.8352,-0.8342,-0.8343,-0.8343,-0.8343,-0.8302,-0.83,-0.8299,0,0,0,0,0,0,0,0,0,0,0,0,0,-0.8429,-0.8462,-0.8393,-0.8382,-0.8381,-0.8353,-0.8352,-0.8352,-0.8342,-0.8343,-0.8343,-0.8343,-0.8302,-0.83,-0.8298,-0.8278,0,0,-0.8292,-0.8291,0,0,0,0,0,0,0,0,-0.8431,-0.8427,-0.8384,-0.8383,-0.8381,-0.8353,-0.8362,-0.8327,-0.8342,-0.8357,-0.8343,-0.8344,-0.8318,-0.8315,-0.8306,-0.8276,-0.8274,-0.8292,-0.8291,-0.829,-0.8289,0,0,0,0,0,0,0,-0.8434,-0.8428,-0.8377,-0.8384,-0.8382,-0.8381,-0.8376,-0.8355,-0.8336,-0.8356,-0.8355,-0.835,-0.8318,-0.8308,-0.8305,-0.8273,-0.8292,-0.829,-0.8289,-0.8288,-0.8229,-0.8229,0,0,0,0,0,0,-0.8438,-0.843,-0.8378,-0.8376,-0.8408,-0.8379,-0.8374,-0.8362,-0.8336,-0.8332,-0.835,-0.835,-0.8312,-0.8308,-0.8304,-0.8281,-0.829,-0.8288,-0.8287,-0.8229,-0.8229,-0.8229,0,0,0,0,0,0,-0.8439,-0.8433,-0.838,-0.8403,-0.8396,-0.8377,-0.8364,-0.8361,-0.8352,-0.8332,-0.8328,-0.8344,-0.8312,-0.8307,-0.8286,-0.8279,-0.8287,-0.8285,-0.823,-0.8229,-0.8229,-0.8233,0,0,0,0,0,0,-0.8441,-0.8434,-0.8425,-0.8403,-0.8395,-0.8361,-0.8363,-0.836,-0.8348,-0.8348,-0.8325,-0.8322,-0.8312,-0.8289,-0.8284,-0.8277,-0.8284,-0.823,-0.8229,-0.8229,-0.8234,-0.8233,-0.8233,0,0,0,0,0,-0.8444,-0.8426,-0.8424,-0.8418,-0.8383,-0.8361,-0.8356,-0.8345,-0.8348,-0.8339,-0.8328,-0.8323,-0.8281,-0.8287,-0.8281,-0.8273,-0.823,-0.823,-0.8229,-0.8234,-0.8233,-0.8233,0,0,0,0,0,0,-0.8446,-0.8423,-0.842,-0.8395,-0.838,-0.8359,-0.8348,-0.8344,-0.8327,-0.8328,-0.8315,-0.831,-0.829,-0.8279,-0.8286,-0.8255,-0.8256,-0.8254,-0.8262,-0.8261,-0.8261,-0.8264,-0.8282,0,0,0,0,0,-0.8444,-0.8427,-0.8408,-0.8388,-0.8381,-0.8366,-0.8355,-0.8349,-0.8333,-0.8326,-0.8312,-0.8297,-0.8281,-0.827,-0.8254,-0.8233,-0.8229,-0.8225,-0.8224,-0.8224,-0.8223,-0.8214,-0.8213,-0.8226,-0.8226,-0.8226,0,0,-0.8439,-0.8424,-0.8414,-0.8388,-0.8376,-0.836,-0.836,-0.8343,-0.8332,-0.8323,-0.8303,-0.8293,-0.8275,-0.8255,-0.8245,-0.8246,-0.8219,-0.8223,-0.8223,-0.8222,-0.8214,-0.8212,-0.8211,-0.8225,-0.8226,-0.8226,0,0,-0.8422,-0.8408,-0.8391,-0.838,-0.8362,-0.8353,-0.835,-0.833,-0.8324,-0.8304,-0.8298,-0.8285,-0.8257,-0.8246,-0.8236,-0.8221,-0.8217,-0.8216,-0.8213,-0.8205,-0.8205,-0.8204,-0.8201,-0.8199,-0.8215,-0.8215,-0.8215,0,-0.8417,-0.8393,-0.8383,-0.8368,-0.8358,-0.8351,-0.8336,-0.8325,-0.8303,-0.8297,-0.8298,-0.8265,-0.8252,-0.8231,-0.8228,-0.822,-0.8217,-0.8218,-0.8205,-0.8204,-0.8203,-0.8201,-0.8199,-0.8215,-0.8215,-0.8215,-0.8215,0,-0.8391,-0.8375,-0.8364,-0.8344,-0.8333,-0.8318,-0.8307,-0.8297,-0.8293,-0.8284,-0.8266,-0.8252,-0.8234,-0.8229,-0.8223,-0.8208,-0.8209,-0.8208,-0.8209,-0.8203,-0.82,-0.8198,-0.8215,-0.8215,-0.8215,-0.8215,0,0,-0.8371,-0.835,-0.8346,-0.8339,-0.8321,-0.8309,-0.8295,-0.8279,-0.8273,-0.8259,-0.8248,-0.8226,-0.8227,-0.8216,-0.821,-0.8203,-0.8196,-0.8203,-0.8202,-0.8204,-0.8182,-0.8184,-0.8182,-0.8193,-0.8193,-0.8193,-0.8184,0,-0.8354,-0.8328,-0.8321,-0.83,-0.8287,-0.8283,-0.8271,-0.826,-0.8253,-0.8242,-0.8234,-0.822,-0.8219,-0.8214,-0.8207,-0.8198,-0.8191,-0.8198,-0.8184,-0.8184,-0.819,-0.818,-0.8181,-0.8173,-0.8183,-0.8182,-0.8182,0,-0.8329,-0.8317,-0.8295,-0.8283,-0.8278,-0.8267,-0.8254,-0.8243,-0.8232,-0.8227,-0.8218,-0.8213,-0.8201,-0.8203,-0.8187,-0.8192,-0.8186,-0.8182,-0.8181,-0.818,-0.8183,-0.818,-0.817,-0.817,-0.818,-0.818,-0.818,0,-0.8321,-0.8299,-0.8284,-0.8278,-0.8263,-0.8256,-0.8249,-0.8238,-0.8231,-0.822,-0.8216,-0.8203,-0.8196,-0.8187,-0.818,-0.8183,-0.8166,-0.8167,-0.8163,-0.8163,-0.8159,-0.816,-0.815,-0.8154,-0.8154,-0.8154,-0.8154,0,-0.8302,-0.829,-0.8281,-0.8272,-0.8259,-0.8252,-0.8239,-0.8232,-0.8223,-0.8214,-0.821,-0.8201,-0.8192,-0.8183,-0.8177,-0.8167,-0.8163,-0.816,-0.8159,-0.8161,-0.8162,-0.8157,-0.8158,-0.8154,-0.8154,-0.8154,-0.8154,0,-0.829,-0.8283,-0.8268,-0.8256,-0.8253,-0.8244,-0.8235,-0.8227,-0.8221,-0.821,-0.8207,-0.8198,-0.8187,-0.818,-0.8165,-0.8162,-0.8151,-0.8149,-0.8155,-0.8155,-0.8152,-0.8153,-0.8139,-0.8138,-0.8142,-0.8142,-0.8142,0,-0.828,-0.8271,-0.8259,-0.8253,-0.8247,-0.8237,-0.8231,-0.8225,-0.8218,-0.8207,-0.8201,-0.8191,-0.8182,-0.8166,-0.8158,-0.8148,-0.8147,-0.8143,-0.8145,-0.8149,-0.8149,-0.815,-0.8151,-0.8143,-0.8143,-0.8143,-0.8143,0,-0.8263,-0.8261,-0.8252,-0.8242,-0.8235,-0.8227,-0.8219,-0.8214,-0.8207,-0.82,-0.819,-0.8184,-0.8172,-0.8162,-0.8152,-0.8146,-0.8144,-0.8143,-0.8141,-0.8144,-0.8148,-0.8148,-0.8156,-0.8143,-0.8143,-0.8143,-0.8143,-0.8143,-0.8253,-0.8246,-0.8238,-0.8229,-0.8223,-0.8216,-0.821,-0.8204,-0.8196,-0.8186,-0.8183,-0.8174,-0.8166,-0.8153,-0.8147,-0.8141,-0.8141,-0.8138,-0.8138,-0.8138,-0.8139,-0.8149,-0.8139,-0.8139,-0.8139,-0.8139,-0.8139,0,-0.8238,-0.8233,-0.8225,-0.8215,-0.8209,-0.8209,-0.8201,-0.8196,-0.8187,-0.8181,-0.8173,-0.8164,-0.8156,-0.8149,-0.8141,-0.8137,-0.8136,-0.8135,-0.8136,-0.8135,-0.8139,-0.8141,-0.8137,-0.8137,-0.8137,-0.8137,-0.8137,-0.8137,-0.8229,-0.8219,-0.8216,-0.8204,-0.82,-0.8191,-0.8187,-0.8182,-0.8177,-0.8167,-0.8161,-0.8157,-0.8151,-0.8143,-0.8136,-0.8135,-0.8133,-0.8132,-0.8131,-0.8134,-0.8134,-0.8135,-0.8137,-0.8132,-0.8132,-0.8128,-0.8128,-0.8128]}]]